Location: Red Deer
(52.2681°N, 113.8112°W)
Time: 19:40:19
(UTC-07:00)

N. Korean satellite - Pass Details

Date: 28 November 2022
Orbit: 407 x 442 km, 97.3° (Epoch: 05 February)

Event Time Altitude Azimuth Distance (km) Brightness Sun altitude
Rises 04:57:08 0° 28° (NNE) 2,534 10.6 -29.8°
Reaches altitude 10° 04:59:50 10° 50° (NE) 1,649 9.9 -29.4°
Maximum altitude 05:02:06 16° 90° (E) 1,314 9.5 -29.0°
Drops below altitude 10° 05:04:21 10° 130° (SE) 1,633 9.8 -28.7°
Sets 05:07:00 0° 153° (SSE) 2,497 10.5 -28.3°
